Starlink 4474

operational
NORAD ID: 53547 Int'l Des: 2022-101 Owner: SPXS Country: US Constellation: starlink
LEOCIRCULAR

Starlink 4474について

説明を読み込み中...

リアルタイム位置

3D地球を読み込み中...

次回通過

高度履歴

Altitude vs Time

uPlot chart will show altitude changes over time

軌道要素

1 53547U 22101W 25306.44498162 .00009719 00000-0 62752-3 0 9995
2 53547 53.2153 275.3452 0001425 97.9878 262.1276 15.08862050177762
Epoch: Nov 2, 2025 • Age: 7 hours

現在のステータス

高度 543.5 km
速度 7.60 km/s
衛星直下点 44.45°N, 19.12°E
打ち上げ日 Aug 19, 2022
運用期間 3.2 years
タイプ internet

技術仕様

分類 Payload
質量 300.00 kg
乾燥質量 290.00 kg
総質量 300.00 kg
長さ 0.20 m
直径 2.80 m
スパン 9.00 m
形状 Box + pan
製造者 SPXS
バスタイプ Starlink
フェーズステータス In Orbit
所有者/国 SPXS/US

大規模コンステレーション

Loading constellations...